User: anonymous   Login
Location: Unspecified
(0.0000°N, 0.0000°E)
Time: 20:43:35
(UTC+01:00)
Language:

Cosmos 773 Rocket - Orbit

View from above orbital plane
View from above orbital plane
View from above satellite
View from above satellite

Ground track
Ground track

The orbit data is extracted from the following two-line orbital elements,

1  8344U 75094B   17054.95490230 +.00000030 +00000-0 +18132-4 0  9995
2  8344 074.0592 334.2752 0023063 263.9006 095.9521 14.39083278169130
Epoch (UTC): 23 February 2017 22:55:03
Eccentricity: 0.0023063
inclination: 74.0592°
perigee height: 745 km
apogee height: 778 km
right ascension of ascending node: 334.2752°
argument of perigee: 263.9006°
revolutions per day: 14.39083278
mean anomaly at epoch: 95.9521°
orbit number at epoch: 16913

The dashed part of the orbit path shows where the satellite is in the earth's shadow,  

DLR